Regional Weather Roundup
Issued by NWS

Home | Current Version | Previous Version | Graphics & Text | Print | Product List | Glossary On
Versions: 1 2 3 4 5 6 7 8 9 10 11 12 13 14 15 16 17 18 19 20 21 22 23 24 25 26 27 28 29 30 31 32 33 34 35 36 37 38 39 40 41 42 43 44 45 46 47 48 49 50
000
ASUS43 KBIS 292110
RWRND

NORTH DAKOTA REGIONAL WEATHER ROUNDUP
NATIONAL WEATHER SERVICE BISMARCK ND
400 PM CDT MON JUN 29 2015

NOTE: "FAIR" INDICATES FEW OR NO CLOUDS BELOW 12,000 FEET WITH NO
SIGNIFICANT WEATHER AND/OR OBSTRUCTIONS TO VISIBILITY.


NDZ001>003-009>011-017-292200-
NORTHWEST NORTH DAKOTA

CITY           SKY/WX    TMP DP  RH WIND       PRES   REMARKS
WILLISTON      PTSUNNY   95  58  28 W7        29.92F HX  94
MINOT          PTSUNNY   88  58  36 NW9       29.92F
MINOT AFB      MOSUNNY   91  56  30 N9        29.91F HX  90
$$

NDZ018>021-031>035-040>046-292200-
SOUTHWEST NORTH DAKOTA

CITY           SKY/WX    TMP DP  RH WIND       PRES   REMARKS
BISMARCK       MOSUNNY   92  54  27 NW9       29.94F HX  90
DICKINSON      MOSUNNY   89  62  40 SW6       29.97F
GARRISON         N/A     89  59  36 NW9       29.94F
HETTINGER ARPT SUNNY     89  60  37 W9        30.02F
$$

NDZ004>008-012>016-024-026-027-054-292200-
NORTHEAST NORTH DAKOTA

CITY           SKY/WX    TMP DP  RH WIND       PRES   REMARKS
GRAND FORKS    CLOUDY    77  64  64 N12       29.87S
GRND FRKS AFB  SUNNY     76  65  67 N10       29.88F
DEVILS LAKE    SUNNY     77  61  57 N6        29.92F
$$

NDZ022-023-025-028>030-036>039-047>053-292200-
SOUTHEAST NORTH DAKOTA

CITY           SKY/WX    TMP DP  RH WIND       PRES   REMARKS
FARGO          SUNNY     77  62  59 NW12      29.86S
JAMESTOWN      MOSUNNY   81  61  50 N9        29.91F
$$




USA.gov is the U.S. government's official web portal to all federal, state and local government web resources and services.